Courier 1B Rocket - Orbit

View from above orbital plane
View from above orbital plane
View from above satellite
View from above satellite

Ground track
Ground track

The orbit data is extracted from the following two-line orbital elements,

1 00059U 60013B   13167.82142376  .00000114  00000-0  38122-4 0  7719
2 00059 028.2495 035.3184 0189281 060.6950 301.2369 13.52864341600495
Epoch (UTC): 16 June 2013 19:42:51
Eccentricity: 0.0189281
inclination: 28.2495°
perigee height: 921 km
apogee height: 1202 km
right ascension of ascending node: 35.3184°
argument of perigee: 60.6950°
revolutions per day: 13.52864341
mean anomaly at epoch: 301.2369°
orbit number at epoch: 60049

The dashed part of the orbit path shows where the satellite is in the earth's shadow,  

Developed and maintained by Chris Peat, Heavens-Above GmbH. Please read the updated FAQ before sending e-mail. Imprint. DLR